Time,TemperatureF,DewpointF,PressureIn,WindDirection,WindDirectionDegrees,WindSpeedMPH,WindSpeedGustMPH,Humidity,HourlyPrecipIn,Conditions,Clouds,dailyrainin,SolarRadiationWatts/m^2,SoftwareType,DateUTC
2014-12-29 00:05:00,10.4,-32.3,30.51,North,0,2.0,6.0,12,0.00,,,0.00,0,Wunderground v.1.15,2014-12-29 06:05:00,
2014-12-29 00:11:00,10.4,-32.3,30.51,North,2,4.0,4.0,12,0.00,,,0.00,0,Wunderground v.1.15,2014-12-29 06:11:00,
2014-12-29 00:16:00,10.3,-34.0,30.51,NNE,23,3.0,8.0,11,0.00,,,0.00,0,Wunderground v.1.15,2014-12-29 06:16:00,
2014-12-29 00:21:00,10.2,-34.0,30.51,NE,37,1.0,5.0,11,0.00,,,0.00,0,Wunderground v.1.15,2014-12-29 06:21:00,
2014-12-29 00:27:00,10.2,-34.0,30.51,North,0,2.0,5.0,11,0.00,,,0.00,0,Wunderground v.1.15,2014-12-29 06:27:00,
2014-12-29 00:33:00,10.1,-34.1,30.51,North,0,0.0,1.0,11,0.00,,,0.00,0,Wunderground v.1.15,2014-12-29 06:33:00,
2014-12-29 00:38:00,10.0,-34.2,30.51,North,10,2.0,4.0,11,0.00,,,0.00,0,Wunderground v.1.15,2014-12-29 06:38:00,
2014-12-29 00:43:00,10.0,-34.2,30.51,North,9,1.0,4.0,11,0.00,,,0.00,0,Wunderground v.1.15,2014-12-29 06:43:00,
2014-12-29 00:48:00,9.9,-34.3,30.52,NNE,23,2.0,4.0,11,0.00,,,0.00,0,Wunderground v.1.15,2014-12-29 06:48:00,
2014-12-29 00:53:00,9.8,-34.3,30.52,NNE,30,3.0,3.0,11,0.00,,,0.00,0,Wunderground v.1.15,2014-12-29 06:53:00,
2014-12-29 00:58:00,9.7,-34.4,30.52,North,10,4.0,4.0,11,0.00,,,0.00,0,Wunderground v.1.15,2014-12-29 06:58:00,
2014-12-29 01:04:00,9.5,-34.6,30.52,North,2,2.0,2.0,11,0.00,,,0.00,0,Wunderground v.1.15,2014-12-29 07:04:00,
2014-12-29 01:09:00,9.4,-34.7,30.52,North,3,1.0,2.0,11,0.00,,,0.00,0,Wunderground v.1.15,2014-12-29 07:09:00,
2014-12-29 01:15:00,9.2,-34.8,30.52,North,5,1.0,2.0,11,0.00,,,0.00,0,Wunderground v.1.15,2014-12-29 07:15:00,
2014-12-29 01:20:00,9.1,-34.9,30.52,NNE,13,0.0,3.0,11,0.00,,,0.00,0,Wunderground v.1.15,2014-12-29 07:20:00,
2014-12-29 01:25:00,9.0,-35.0,30.52,North,2,1.0,3.0,11,0.00,,,0.00,0,Wunderground v.1.15,2014-12-29 07:25:00,
2014-12-29 01:31:00,8.8,-35.1,30.52,NNE,26,1.0,5.0,11,0.00,,,0.00,0,Wunderground v.1.15,2014-12-29 07:31:00,
2014-12-29 01:36:00,8.8,-35.1,30.52,NNE,19,1.0,5.0,11,0.00,,,0.00,0,Wunderground v.1.15,2014-12-29 07:36:00,
2014-12-29 01:41:00,8.7,-35.2,30.52,North,10,4.0,4.0,11,0.00,,,0.00,0,Wunderground v.1.15,2014-12-29 07:41:00,
2014-12-29 01:46:00,8.7,-35.2,30.53,NNE,12,1.0,4.0,11,0.00,,,0.00,0,Wunderground v.1.15,2014-12-29 07:46:00,
2014-12-29 01:51:00,8.6,-35.3,30.53,NNE,27,0.0,4.0,11,0.00,,,0.00,0,Wunderground v.1.15,2014-12-29 07:51:00,
2014-12-29 01:56:00,8.5,-35.4,30.52,NNE,28,4.0,7.0,11,0.00,,,0.00,0,Wunderground v.1.15,2014-12-29 07:56:00,
2014-12-29 02:01:00,8.4,-37.2,30.53,North,9,1.0,1.0,10,0.00,,,0.00,0,Wunderground v.1.15,2014-12-29 08:01:00,
2014-12-29 02:06:00,8.4,-37.2,30.53,North,0,1.0,5.0,10,0.00,,,0.00,0,Wunderground v.1.15,2014-12-29 08:06:00,
2014-12-29 02:11:00,8.2,-37.3,30.53,North,0,3.0,5.0,10,0.00,,,0.00,0,Wunderground v.1.15,2014-12-29 08:11:00,
2014-12-29 02:16:00,8.2,-37.3,30.53,NNE,30,2.0,7.0,10,0.00,,,0.00,0,Wunderground v.1.15,2014-12-29 08:16:00,
2014-12-29 02:21:00,8.1,-37.4,30.53,NNE,27,4.0,4.0,10,0.00,,,0.00,0,Wunderground v.1.15,2014-12-29 08:21:00,
2014-12-29 02:26:00,7.9,-37.6,30.53,NNE,20,3.0,6.0,10,0.00,,,0.00,0,Wunderground v.1.15,2014-12-29 08:26:00,
2014-12-29 02:31:00,7.9,-37.6,30.53,NNE,27,2.0,7.0,10,0.00,,,0.00,0,Wunderground v.1.15,2014-12-29 08:31:00,
2014-12-29 02:36:00,7.8,-37.6,30.54,NNE,12,3.0,7.0,10,0.00,,,0.00,0,Wunderground v.1.15,2014-12-29 08:36:00,
2014-12-29 02:41:00,7.7,-37.7,30.54,North,4,4.0,4.0,10,0.00,,,0.00,0,Wunderground v.1.15,2014-12-29 08:41:00,
2014-12-29 02:46:00,7.7,-37.7,30.55,NNE,16,2.0,5.0,10,0.00,,,0.00,0,Wunderground v.1.15,2014-12-29 08:46:00,
2014-12-29 02:51:00,7.6,-36.1,30.55,NNE,27,0.0,2.0,11,0.00,,,0.00,0,Wunderground v.1.15,2014-12-29 08:51:00,
2014-12-29 02:56:00,7.5,-36.2,30.54,NNE,26,1.0,4.0,11,0.00,,,0.00,0,Wunderground v.1.15,2014-12-29 08:56:00,
2014-12-29 03:01:00,7.4,-36.3,30.54,NNE,25,1.0,2.0,11,0.00,,,0.00,0,Wunderground v.1.15,2014-12-29 09:01:00,
2014-12-29 03:06:00,7.3,-36.3,30.54,NE,41,1.0,6.0,11,0.00,,,0.00,0,Wunderground v.1.15,2014-12-29 09:06:00,
2014-12-29 03:11:00,7.3,-36.3,30.55,NNE,14,1.0,3.0,11,0.00,,,0.00,0,Wunderground v.1.15,2014-12-29 09:11:00,
2014-12-29 03:16:00,7.2,-36.4,30.55,North,4,0.0,4.0,11,0.00,,,0.00,0,Wunderground v.1.15,2014-12-29 09:16:00,
2014-12-29 03:21:00,7.1,-36.5,30.55,NNE,12,0.0,3.0,11,0.00,,,0.00,0,Wunderground v.1.15,2014-12-29 09:21:00,
2014-12-29 03:26:00,7.0,-36.6,30.55,North,11,1.0,5.0,11,0.00,,,0.00,0,Wunderground v.1.15,2014-12-29 09:26:00,
2014-12-29 03:31:00,6.8,-36.7,30.55,NNE,23,1.0,6.0,11,0.00,,,0.00,0,Wunderground v.1.15,2014-12-29 09:31:00,
2014-12-29 03:36:00,6.7,-36.8,30.55,North,6,2.0,7.0,11,0.00,,,0.00,0,Wunderground v.1.15,2014-12-29 09:36:00,
2014-12-29 03:41:00,6.6,-36.9,30.55,NNE,27,6.0,6.0,11,0.00,,,0.00,0,Wunderground v.1.15,2014-12-29 09:41:00,
2014-12-29 03:46:00,6.5,-37.0,30.55,North,0,3.0,7.0,11,0.00,,,0.00,0,Wunderground v.1.15,2014-12-29 09:46:00,
2014-12-29 03:51:00,6.4,-37.1,30.55,NNE,20,2.0,6.0,11,0.00,,,0.00,0,Wunderground v.1.15,2014-12-29 09:51:00,
2014-12-29 03:56:00,6.3,-37.1,30.56,NNE,16,5.0,8.0,11,0.00,,,0.00,0,Wunderground v.1.15,2014-12-29 09:56:00,
2014-12-29 04:01:00,6.2,-37.2,30.55,NNE,12,2.0,2.0,11,0.00,,,0.00,0,Wunderground v.1.15,2014-12-29 10:01:00,
2014-12-29 04:06:00,6.1,-37.3,30.56,NNE,31,1.0,4.0,11,0.00,,,0.00,0,Wunderground v.1.15,2014-12-29 10:06:00,
2014-12-29 04:11:00,6.0,-37.4,30.56,NNE,30,0.0,2.0,11,0.00,,,0.00,0,Wunderground v.1.15,2014-12-29 10:11:00,
2014-12-29 04:16:00,5.9,-37.5,30.57,NNE,29,0.0,3.0,11,0.00,,,0.00,0,Wunderground v.1.15,2014-12-29 10:16:00,
2014-12-29 04:21:00,5.8,-37.5,30.56,NNE,29,0.0,2.0,11,0.00,,,0.00,0,Wunderground v.1.15,2014-12-29 10:21:00,
2014-12-29 04:26:00,5.7,-36.1,30.56,NNE,29,0.0,2.0,12,0.00,,,0.00,0,Wunderground v.1.15,2014-12-29 10:26:00,
2014-12-29 04:31:00,5.6,-36.2,30.56,NNE,29,1.0,3.0,12,0.00,,,0.00,0,Wunderground v.1.15,2014-12-29 10:31:00,
2014-12-29 04:36:00,5.6,-36.2,30.56,NNE,28,0.0,3.0,12,0.00,,,0.00,0,Wunderground v.1.15,2014-12-29 10:36:00,
2014-12-29 04:41:00,5.6,-36.2,30.57,NNE,27,0.0,3.0,12,0.00,,,0.00,0,Wunderground v.1.15,2014-12-29 10:41:00,
2014-12-29 04:46:00,5.6,-36.2,30.57,NNE,27,1.0,3.0,12,0.00,,,0.00,0,Wunderground v.1.15,2014-12-29 10:46:00,
2014-12-29 04:51:00,5.5,-34.8,30.57,NNE,25,1.0,3.0,13,0.00,,,0.00,0,Wunderground v.1.15,2014-12-29 10:51:00,
2014-12-29 04:56:00,5.5,-34.8,30.57,NNE,25,1.0,3.0,13,0.00,,,0.00,0,Wunderground v.1.15,2014-12-29 10:56:00,
2014-12-29 05:01:00,5.5,-34.8,30.57,NNE,25,1.0,1.0,13,0.00,,,0.00,0,Wunderground v.1.15,2014-12-29 11:01:00,
2014-12-29 05:06:00,5.4,-34.9,30.57,NNE,25,0.0,2.0,13,0.00,,,0.00,0,Wunderground v.1.15,2014-12-29 11:06:00,
2014-12-29 05:11:00,5.4,-33.6,30.57,NNE,24,1.0,3.0,14,0.00,,,0.00,0,Wunderground v.1.15,2014-12-29 11:11:00,
2014-12-29 05:16:00,5.4,-33.6,30.57,NNE,22,1.0,3.0,14,0.00,,,0.00,0,Wunderground v.1.15,2014-12-29 11:16:00,
2014-12-29 05:21:00,5.4,-33.6,30.58,NNE,22,1.0,1.0,14,0.00,,,0.00,0,Wunderground v.1.15,2014-12-29 11:21:00,
2014-12-29 05:26:00,5.4,-33.6,30.57,NNE,20,2.0,3.0,14,0.00,,,0.00,0,Wunderground v.1.15,2014-12-29 11:26:00,
2014-12-29 05:31:00,5.5,-32.3,30.57,North,11,1.0,3.0,15,0.00,,,0.00,0,Wunderground v.1.15,2014-12-29 11:31:00,
2014-12-29 05:36:00,5.5,-32.3,30.58,North,11,2.0,3.0,15,0.00,,,0.00,0,Wunderground v.1.15,2014-12-29 11:36:00,
2014-12-29 05:41:00,5.4,-32.3,30.58,North,11,0.0,1.0,15,0.00,,,0.00,0,Wunderground v.1.15,2014-12-29 11:41:00,
2014-12-29 05:46:00,5.3,-32.4,30.58,North,0,3.0,6.0,15,0.00,,,0.00,0,Wunderground v.1.15,2014-12-29 11:46:00,
2014-12-29 05:51:00,5.1,-32.6,30.58,North,0,1.0,4.0,15,0.00,,,0.00,0,Wunderground v.1.15,2014-12-29 11:51:00,
2014-12-29 05:56:00,4.9,-32.8,30.59,North,0,2.0,6.0,15,0.00,,,0.00,0,Wunderground v.1.15,2014-12-29 11:56:00,
2014-12-29 06:01:00,4.8,-32.8,30.59,North,353,1.0,3.0,15,0.00,,,0.00,0,Wunderground v.1.15,2014-12-29 12:01:00,
2014-12-29 06:06:00,4.8,-32.8,30.60,North,352,1.0,5.0,15,0.00,,,0.00,0,Wunderground v.1.15,2014-12-29 12:06:00,
2014-12-29 06:11:00,4.8,-32.8,30.60,North,353,1.0,2.0,15,0.00,,,0.00,0,Wunderground v.1.15,2014-12-29 12:11:00,
2014-12-29 06:16:00,4.7,-32.9,30.60,NNW,348,1.0,5.0,15,0.00,,,0.00,0,Wunderground v.1.15,2014-12-29 12:16:00,
2014-12-29 06:21:00,4.5,-33.1,30.60,NNW,328,2.0,5.0,15,0.00,,,0.00,0,Wunderground v.1.15,2014-12-29 12:21:00,
2014-12-29 06:26:00,4.4,-33.2,30.60,NNW,336,2.0,5.0,15,0.00,,,0.00,0,Wunderground v.1.15,2014-12-29 12:26:00,
2014-12-29 06:31:00,4.3,-32.1,30.60,NNW,340,4.0,5.0,16,0.00,,,0.00,0,Wunderground v.1.15,2014-12-29 12:31:00,
2014-12-29 06:36:00,4.2,-32.2,30.61,NNW,347,0.0,5.0,16,0.00,,,0.00,0,Wunderground v.1.15,2014-12-29 12:36:00,
2014-12-29 06:41:00,4.1,-32.3,30.61,North,358,4.0,4.0,16,0.00,,,0.00,0,Wunderground v.1.15,2014-12-29 12:41:00,
2014-12-29 06:46:00,4.0,-32.3,30.61,North,354,2.0,6.0,16,0.00,,,0.00,0,Wunderground v.1.15,2014-12-29 12:46:00,
2014-12-29 06:52:00,3.9,-32.4,30.61,North,350,3.0,7.0,16,0.00,,,0.00,0,Wunderground v.1.15,2014-12-29 12:52:00,
2014-12-29 06:57:00,3.7,-32.6,30.61,NNW,342,1.0,7.0,16,0.00,,,0.00,0,Wunderground v.1.15,2014-12-29 12:57:00,
2014-12-29 07:02:00,3.5,-33.9,30.61,NNW,335,2.0,5.0,15,0.00,,,0.00,0,Wunderground v.1.15,2014-12-29 13:02:00,
2014-12-29 07:07:00,3.4,-32.8,30.62,NNW,339,1.0,5.0,16,0.00,,,0.00,0,Wunderground v.1.15,2014-12-29 13:07:00,
2014-12-29 07:12:00,3.4,-32.8,30.62,NNW,346,2.0,4.0,16,0.00,,,0.00,0,Wunderground v.1.15,2014-12-29 13:12:00,
2014-12-29 07:17:00,3.2,-33.0,30.62,North,355,1.0,6.0,16,0.00,,,0.00,0,Wunderground v.1.15,2014-12-29 13:17:00,
2014-12-29 07:22:00,3.1,-33.1,30.62,North,357,0.0,4.0,16,0.00,,,0.00,0,Wunderground v.1.15,2014-12-29 13:22:00,
2014-12-29 07:27:00,3.0,-33.2,30.63,North,355,2.0,6.0,16,0.00,,,0.00,0,Wunderground v.1.15,2014-12-29 13:27:00,
2014-12-29 07:32:00,2.9,-33.3,30.63,NNW,343,1.0,4.0,16,0.00,,,0.00,0,Wunderground v.1.15,2014-12-29 13:32:00,
2014-12-29 07:37:00,2.8,-33.3,30.63,NNW,343,4.0,7.0,16,0.00,,,0.00,0,Wunderground v.1.15,2014-12-29 13:37:00,
2014-12-29 07:42:00,2.6,-33.5,30.63,North,350,1.0,4.0,16,0.00,,,0.00,0,Wunderground v.1.15,2014-12-29 13:42:00,
2014-12-29 07:47:00,2.5,-34.7,30.63,North,349,1.0,5.0,15,0.00,,,0.00,0,Wunderground v.1.15,2014-12-29 13:47:00,
2014-12-29 07:52:00,2.3,-33.8,30.63,North,353,5.0,5.0,16,0.00,,,0.00,0,Wunderground v.1.15,2014-12-29 13:52:00,
2014-12-29 07:57:00,2.3,-33.8,30.64,North,357,1.0,6.0,16,0.00,,,0.00,0,Wunderground v.1.15,2014-12-29 13:57:00,
2014-12-29 08:02:00,2.2,-33.8,30.64,North,356,1.0,3.0,16,0.00,,,0.00,0,Wunderground v.1.15,2014-12-29 14:02:00,
2014-12-29 08:07:00,2.2,-33.8,30.64,North,357,2.0,3.0,16,0.00,,,0.00,0,Wunderground v.1.15,2014-12-29 14:07:00,
2014-12-29 08:12:00,2.1,-33.9,30.65,North,350,1.0,4.0,16,0.00,,,0.00,0,Wunderground v.1.15,2014-12-29 14:12:00,
2014-12-29 08:17:00,2.2,-33.8,30.65,NNW,345,1.0,4.0,16,0.00,,,0.00,0,Wunderground v.1.15,2014-12-29 14:17:00,
2014-12-29 08:22:00,2.1,-33.9,30.65,NNW,343,1.0,8.0,16,0.00,,,0.00,0,Wunderground v.1.15,2014-12-29 14:22:00,
2014-12-29 08:28:00,2.0,-34.0,30.66,North,351,2.0,8.0,16,0.00,,,0.00,0,Wunderground v.1.15,2014-12-29 14:28:00,
2014-12-29 08:33:00,2.0,-34.0,30.66,North,351,1.0,5.0,16,0.00,,,0.00,0,Wunderground v.1.15,2014-12-29 14:33:00,
2014-12-29 08:37:00,2.0,-34.0,30.66,NNW,336,2.0,5.0,16,0.00,,,0.00,0,Wunderground v.1.15,2014-12-29 14:37:00,
2014-12-29 08:43:00,2.0,-34.0,30.67,North,352,0.0,4.0,16,0.00,,,0.00,0,Wunderground v.1.15,2014-12-29 14:43:00,
2014-12-29 08:48:00,2.0,-34.0,30.67,North,352,1.0,5.0,16,0.00,,,0.00,0,Wunderground v.1.15,2014-12-29 14:48:00,
2014-12-29 08:53:00,2.0,-34.0,30.66,North,352,1.0,2.0,16,0.00,,,0.00,0,Wunderground v.1.15,2014-12-29 14:53:00,
2014-12-29 08:58:00,2.0,-34.0,30.67,North,352,1.0,2.0,16,0.00,,,0.00,0,Wunderground v.1.15,2014-12-29 14:58:00,
2014-12-29 09:03:00,2.0,-34.0,30.68,North,357,2.0,5.0,16,0.00,,,0.00,0,Wunderground v.1.15,2014-12-29 15:03:00,
2014-12-29 09:08:00,2.0,-34.0,30.69,NNW,340,0.0,5.0,16,0.00,,,0.00,0,Wunderground v.1.15,2014-12-29 15:08:00,
2014-12-29 09:13:00,1.9,-34.1,30.69,NNW,338,3.0,4.0,16,0.00,,,0.00,0,Wunderground v.1.15,2014-12-29 15:13:00,